Location: Bridgewater Hill Observatory
(43.5992°N, 72.6989°W)
Time: 03:11:18
(UTC-04:00)

Daily predictions for brighter satellites

Satellite Brightness Start Highest point End
(mag) Time Altitude Azimuth Time Altitude Azimuth Time Altitude Azimuth
Cosmos 972 4.3 00:00:48 10° NNW 00:06:11 79° WSW 00:06:49 67° SSW
H-2A R/B 4.3 00:05:36 15° WSW 00:06:38 16° W 00:09:24 10° NW
Cosmos 1953 4.1 00:03:38 10° NW 00:06:50 22° W 00:07:12 22° W
Cosmos 1842 Rocket 3.6 00:05:03 10° N 00:09:33 71° E 00:09:38 70° E
Meteor 2-5 Rocket 3.8 00:09:05 52° SSW 00:10:38 85° W 00:16:37 10° N
Meteor 1-16 Rocket 4.1 00:05:59 10° NNW 00:11:25 82° W 00:12:24 61° S
CZ-2C R/B 2.6 00:09:19 10° NNE 00:14:55 74° ESE 00:15:50 60° SSE
Lacrosse 5 2.3 00:12:01 24° WSW 00:14:59 60° NW 00:20:01 10° NE
ISS -1.8 00:12:06 10° NW 00:15:01 28° NNE 00:15:37 26° NE
Cosmos 2100 Rocket 4.4 00:10:32 10° N 00:16:32 51° ENE 00:18:16 40° ESE
USA 267 3.1 00:16:45 10° NE 00:23:16 69° SE 00:25:20 45° SSW
Cosmos 1470 4.4 00:20:07 10° NNW 00:23:19 25° W 00:23:19 25° W
Cosmos 1707 4.0 00:27:47 33° WNW 00:27:47 33° WNW 00:31:17 10° N
SeaSat 1 2.4 00:27:30 66° SE 00:28:10 80° ENE 00:33:08 10° NNW
Lacrosse 5 rocket 2.8 00:27:12 10° WNW 00:30:19 32° W 00:30:19 32° W
Cosmos 2219 Rocket 3.5 00:26:36 10° N 00:31:44 33° NE 00:34:42 21° ESE
Cosmos 2333 Rocket 3.8 00:27:38 10° N 00:32:35 29° NE 00:36:05 16° ESE
Cosmos 1992 Rocket 4.0 00:29:34 10° NNW 00:34:48 73° ENE 00:35:33 62° SE
Cosmos 2297 Rocket 4.5 00:34:38 10° E 00:34:54 10° E 00:35:10 10° E
Meteor 1-24 Rocket 3.8 00:37:23 55° SSW 00:38:46 81° W 00:44:51 10° N
Cosmos 2061 Rocket 4.1 00:35:32 10° N 00:41:45 68° E 00:43:25 49° SE
Cosmos 1674 4.1 00:42:45 31° ENE 00:42:45 31° ENE 00:45:34 10° NNE
Cosmos 1726 4.5 00:40:08 10° NNE 00:42:31 16° ENE 00:42:48 16° ENE
CZ-3B R/B 4.5 00:41:37 54° SSW 00:42:54 77° SE 00:59:50 10° NE
ALOS 2 3.3 00:48:44 44° W 00:48:44 44° W 00:52:40 10° NNW
CZ-2C R/B 3.6 00:48:57 46° SW 00:49:42 49° W 00:55:16 10° NNW
SL-8 R/B 3.7 00:51:54 69° E 00:51:54 69° E 00:56:11 10° ENE
Cosmos 1727 Rocket 4.5 00:50:54 38° SW 00:52:49 51° WNW 00:58:55 10° N
Cosmos 2237 Rocket 3.8 00:49:29 10° N 00:54:24 30° NE 00:58:16 14° ESE
SL-16 R/B 3.9 00:53:20 10° WNW 00:57:06 18° W 00:57:26 18° WSW
USA 234 3.8 00:51:52 10° ESE 00:58:15 58° NNE 01:04:39 10° NW
Intercosmos 25 4.4 00:58:54 10° NNW 01:00:53 33° NW 01:00:53 33° NW
Landsat 5 3.8 01:01:50 64° E 01:02:07 66° ENE 01:06:38 10° N
In-Cosmos 22 4.2 01:02:09 58° SW 01:03:03 70° WNW 01:08:37 10° N
CZ-4B R/B 2.9 01:04:14 34° N 01:04:14 34° N 01:06:13 10° N
Cosmos 1408 Rocket 4.1 01:06:33 48° E 01:06:33 48° E 01:10:36 10° NNE
Cosmos 1300 4.5 01:03:23 10° NNE 01:06:33 24° ENE 01:06:48 24° E
Cosmos 1000 Rocket 4.4 01:05:05 54° SSW 01:06:40 84° W 01:13:03 10° N
Okean 3 Rocket 3.6 01:08:02 74° W 01:08:05 74° W 01:12:38 10° N
Cosmos 1725 Rocket 4.3 01:03:09 10° N 01:09:26 61° ENE 01:11:31 41° SE
ATLAS 2AS CENTAUR R/B 3.0 01:02:52 10° NW 01:11:00 82° NE 01:15:09 31° SE
Cosmos 2221 2.8 01:08:05 10° NNW 01:12:00 56° WNW 01:12:00 56° WNW
Cosmos 2227 Rocket 3.3 01:11:46 28° ESE 01:12:30 29° ESE 01:17:17 10° NE
Cosmos 2173 Rocket 4.0 01:06:57 10° NNW 01:12:59 66° W 01:14:16 52° SW
CZ-4C R/B 4.2 01:16:48 38° NW 01:16:48 38° NW 01:19:25 10° NNW
SL-08 R/B 4.4 01:10:08 10° N 01:16:18 81° E 01:17:59 51° SSE
Cosmos 1766 Rocket 3.6 01:16:33 66° E 01:16:33 66° E 01:20:49 10° NNE
Cosmos 1689 Rocket 3.9 01:18:05 32° NNW 01:18:05 32° NNW 01:19:55 10° NNW
Geosat 3.8 01:12:23 10° NNE 01:17:26 78° ESE 01:17:59 69° S
NOSS 3-3 (A) 4.1 01:18:31 51° SSE 01:19:41 60° ESE 01:26:12 10° NE
NOSS 3-3 (C) 4.1 01:18:38 51° SSE 01:19:48 59° ESE 01:26:17 10° NE
Cosmos 1140 Rocket 4.4 01:22:18 33° ESE 01:22:57 34° E 01:27:37 10° NE
Cosmos 1076 Rocket 3.8 01:33:16 54° W 01:33:17 54° W 01:37:34 10° N
Cosmos 2151 4.5 01:33:02 25° E 01:33:31 26° E 01:37:02 10° NNE
Cosmos 2360 Rocket 3.6 01:29:18 10° NW 01:33:33 23° W 01:33:33 23° W
Cosmos 1515 Rocket 4.4 01:30:03 10° N 01:34:16 42° ENE 01:35:03 38° ESE
Cosmos 1743 Rocket 4.0 01:36:54 49° ESE 01:37:14 50° E 01:41:31 10° NNE
Cosmos 2219 3.4 01:37:43 44° WSW 01:39:15 60° WNW 01:44:50 10° NNE
Aureole 2 Rocket 3.5 01:37:57 10° N 01:41:57 51° ENE 01:42:36 45° E
Cosmos 1242 Rocket 3.2 01:38:56 10° NNW 01:41:43 50° NNW 01:41:43 50° NNW
Meteor 1-21 Rocket 4.5 01:43:10 47° SW 01:44:41 62° WNW 01:50:28 10° N
COSMOS 2428 3.2 01:39:51 10° NW 01:45:13 41° WSW 01:45:35 41° WSW
Cosmos 2082 4.2 01:44:07 39° SE 01:45:17 45° ESE 01:50:37 10° NE
Cosmos 1864 Rocket 4.5 01:40:12 10° NNW 01:46:29 73° W 01:48:20 48° SSW
Cosmos 1340 Rocket 4.3 01:50:32 26° WNW 01:50:32 26° WNW 01:53:52 10° NNW
BREEZE-M DEB (TANK) 4.5 01:47:17 10° WNW 01:51:11 55° NNE 02:08:17 10° E
PSLV R/B 3.4 01:49:26 10° NNE 01:53:40 74° ESE 01:53:53 71° SE
Helios 1A Rocket 3.4 01:50:58 10° NNE 01:55:04 51° E 01:55:23 49° ESE
Cosmos 1626 3.7 01:54:54 25° E 01:55:16 25° E 01:58:23 10° NNE
JB-3 4.5 01:51:24 10° N 01:55:20 62° WNW 01:55:21 62° WNW
Cosmos 1328 3.7 01:57:32 85° E 01:57:32 85° E 02:01:33 10° N
Cosmos 1151 Rocket 3.4 01:54:05 10° N 01:58:23 58° E 01:59:16 48° SE
Lacrosse 5 4.2 01:54:57 10° WNW 01:58:52 22° NNW 02:02:47 10° NE
Cosmos 1328 Rocket 3.5 01:57:59 10° NNW 02:02:24 68° W 02:02:40 66° WSW
Cosmos 2058 3.5 02:02:48 43° ESE 02:03:21 46° E 02:07:19 10° NNE
CZ-3A R/B 4.2 02:03:56 10° NNE 02:04:17 10° NE 02:04:41 10° NE
H-2A R/B 3.0 02:00:55 10° N 02:05:06 49° WNW 02:05:37 46° W
Cosmos 407 Rocket 4.1 02:04:04 37° WSW 02:05:27 45° WNW 02:10:24 10° N
Cosmos 1954 Rocket 3.9 02:04:29 54° SSW 02:05:43 81° WNW 02:11:00 10° NNE
USA 267 4.1 01:59:57 10° NE 02:06:06 46° NNW 02:12:14 10° W
Cosmos 1570 Rocket 4.4 02:06:05 10° NNW 02:11:25 61° ENE 02:14:35 24° SE
SL-08 R/B 4.3 02:08:33 21° SE 02:11:32 45° ENE 02:16:15 10° N
Meteor 1-11 4.3 02:11:18 41° S 02:13:19 73° E 02:19:05 10° NNE
Meteor 1-27 4.3 02:08:55 10° N 02:14:46 78° E 02:17:29 33° SSE
Cosmos 2219 Rocket 2.7 02:10:29 10° NW 02:15:45 40° WSW 02:16:23 39° WSW
Cosmos 2333 Rocket 2.5 02:11:36 10° NW 02:17:04 48° WSW 02:18:03 43° SW
Cosmos 2297 Rocket 2.2 02:16:08 45° S 02:17:55 77° ESE 02:23:36 10° NNE
Cosmos 1726 3.2 02:14:31 10° NNW 02:17:24 32° WNW 02:17:24 32° WNW
Cosmos 1980 3.8 02:15:05 10° NNW 02:20:40 59° WSW 02:22:16 43° SSW
Meteor 2-10 4.1 02:16:51 10° NNW 02:21:55 61° W 02:23:13 46° SSW
SL-16 R/B 3.7 02:16:50 10° SE 02:22:30 40° ENE 02:28:13 10° N
NPP 4.0 02:19:48 10° NNE 02:25:07 56° E 02:27:23 33° SSE
Cosmos 1900 4.2 02:24:33 50° SSW 02:25:50 83° ESE 02:30:52 10° NE
Resurs 1-4 Rocket 3.6 02:26:00 10° NE 02:30:35 29° E 02:33:58 16° SE
Cosmos 2228 Rocket 3.9 02:28:30 10° NNW 02:32:36 35° W 02:32:56 34° W
Cosmos 1703 3.2 02:34:37 60° S 02:35:17 84° E 02:39:15 10° N
ADEOS Rocket 4.2 02:28:29 10° NNE 02:35:49 51° E 02:41:29 18° SSE
Lacrosse 4 Rocket 2.3 02:36:39 31° SE 02:37:39 36° ESE 02:41:32 10° NE
Cosmos 2233 Rocket 4.4 02:31:42 10° NNW 02:37:41 46° W 02:39:56 33° SW
PSLV R/B 4.0 02:37:25 51° WSW 02:37:46 53° W 02:41:46 10° NNW
Cosmos 2237 Rocket 2.5 02:33:17 10° NW 02:38:38 45° WSW 02:40:03 38° SW
USA 234 3.4 02:37:01 20° SSE 02:41:20 48° SW 02:47:39 10° WNW
SL-16 R/B 2.2 02:36:15 10° NNW 02:41:59 83° ENE 02:46:47 15° SSE
Cosmos 1300 4.2 02:39:05 10° NW 02:41:48 23° W 02:41:48 23° W
Cosmos 1666 Rocket 4.4 02:48:29 24° SSE 02:50:46 47° E 02:55:03 10° NNE
Cosmos 1500 Rocket 4.5 02:51:24 30° WSW 02:52:25 34° WNW 02:56:31 10° N
NOSS 2-1 (D) 4.5 02:53:08 26° W 02:54:42 36° NW 02:58:50 10° NNE
NOSS 2-1 (C) 4.4 02:53:18 26° W 02:54:50 37° NW 02:58:59 10° NNE
Cosmos 1072 Rocket 4.5 02:49:24 10° NNW 02:55:31 69° W 02:59:03 27° S
Cosmos 1513 Rocket 4.5 02:49:16 10° N 02:55:44 87° W 03:00:12 21° S
Cosmos 2227 Rocket 2.9 02:53:35 26° WSW 02:56:20 44° WNW 03:01:45 10° NNE
CZ-2D R/B 2.7 02:54:02 10° NNE 02:59:07 49° E 03:02:39 19° SSE
Cosmos 1891 Rocket 4.4 02:53:44 10° N 03:00:07 83° W 03:04:30 21° S
ATLAS 2AS CENTAUR R/B 4.0 02:55:11 10° WNW 03:01:05 24° WSW 03:02:31 22° WSW
NOSS 3-4 (A) 3.8 02:55:51 10° NW 03:02:55 89° SW 03:10:26 10° SSE
NOSS 3-4 (C) 3.8 02:55:57 10° NW 03:03:00 89° SW 03:10:32 10° SE
Cosmos 2208 Rocket 4.2 02:58:59 10° NNW 03:04:01 52° WSW 03:06:31 28° SSW
Cosmos 1805 Rocket 3.5 03:04:58 34° SSW 03:06:52 78° W 03:11:18 10° N
UNK 3.8 03:06:46 17° SSE 03:10:19 82° ENE 03:14:58 10° N
Cosmos 2151 4.3 03:09:37 23° W 03:10:45 26° WNW 03:14:20 10° NNW
Cosmos 2263 Rocket 4.5 03:09:20 10° SE 03:12:40 16° E 03:16:00 10° ENE
IRS-1C 4.1 03:07:34 10° NNE 03:12:55 78° WNW 03:16:02 26° SSW
IRS-1D 3.8 03:08:04 10° NNE 03:13:24 69° ESE 03:17:03 20° S
BREEZE-M DEB 2.6 03:12:11 29° SW 03:14:13 72° SSE 03:16:36 10° ENE
Cosmos 1464 Rocket 4.2 03:08:38 10° NNW 03:14:36 53° W 03:18:14 23° SSW
Cosmos 1814 Rocket 4.3 03:12:38 10° NNW 03:18:00 72° ENE 03:23:20 10° SSE
DELTA 2 R/B (1) 3.6 03:15:49 22° WSW 03:19:21 57° S 03:24:48 10° E
ATLAS 3B CENTAUR R/B 4.4 03:06:22 10° WSW 03:22:35 33° SSW 03:29:34 10° SE
Cosmos 1455 3.0 03:20:38 10° NNW 03:24:10 34° W 03:25:13 28° SW
CZ-3B DEB 4.4 03:13:03 20° SW 03:24:12 89° SE 03:38:11 10° NE
Sich 1 3.1 03:27:23 25° SSW 03:29:50 67° W 03:34:11 10° N
Cosmos 1626 3.8 03:29:33 18° W 03:30:35 21° WNW 03:33:27 10° NNW
Cosmos 1633 Rocket 3.0 03:30:16 23° SSW 03:32:56 74° W 03:37:18 10° N
Cosmos 1634 Rocket 4.4 03:27:02 10° N 03:33:13 64° E 03:39:18 10° SSE
Cosmos 1470 Rocket 4.0 03:31:50 13° S 03:35:32 58° E 03:39:49 10° NNE
Okean O Rocket 4.3 03:35:39 10° ENE 03:37:54 14° E 03:40:10 10° ESE
Cosmos 220 Rocket 4.5 03:36:54 16° S 03:40:18 60° ESE 03:44:43 10° NNE
COBE Rocket 4.0 03:37:14 10° N 03:41:48 57° WNW 03:44:58 19° SSW
Cosmos 1933 3.6 03:42:43 10° N 03:46:50 74° E 03:50:56 10° SSE
Cosmos 371 Rocket 3.2 03:47:50 10° NNW 03:52:38 68° WSW 03:57:24 10° S
Cosmos 2346 Rocket 4.5 03:47:41 11° S 03:53:39 80° W 03:59:55 10° N
ARIANE 5 R/B 2.7 03:49:22 10° N 03:54:22 56° WNW 03:58:24 15° SW
Cosmos 1400 Rocket 3.3 03:53:11 10° S 03:57:03 60° E 04:00:59 10° NNE
ADEOS 3.8 03:52:53 10° N 03:58:00 55° WNW 04:02:21 14° SW
Cosmos 2297 Rocket 4.0 03:58:35 10° W 04:02:37 20° NW 04:06:41 10° N
Cosmos 1603 3.8 03:59:34 10° NNW 04:05:12 60° WSW 04:10:45 10° S
SL-16 R/B 3.2 04:00:46 11° SSW 04:06:09 35° W 04:11:46 10° NNW
Resurs 1-4 Rocket 2.8 04:05:35 10° N 04:10:29 39° WNW 04:15:04 12° SW
BREEZE-M R/B 3.5 04:05:10 13° SW 04:11:35 69° SSE 04:15:10 10° ENE
ADEOS II 3.4 04:08:18 10° NNE 04:13:15 40° E 04:18:10 10° SSE
Lacrosse 4 Rocket 3.0 04:13:02 10° WSW 04:16:27 24° NW 04:19:58 10° N
SL-8 R/B 4.5 04:12:33 10° WNW 04:17:15 54° NNE 04:21:58 10° E
ATLAS 5 CENTAUR R/B 2.0 04:13:11 10° SSW 04:17:45 70° ESE 04:22:50 10° NE
USA 161 0.7 04:18:12 10° S 04:20:05 47° W 04:21:57 10° NNW
ADEOS Rocket 4.3 04:14:15 10° N 04:21:02 39° WNW 04:28:03 10° SW
Cosmos 304 Rocket 4.1 04:16:12 10° NNW 04:21:03 73° ENE 04:25:49 10° SSE
Cosmos 841 Rocket 3.7 04:17:30 10° NNW 04:22:38 52° WSW 04:27:42 10° S
SL-16 R/B 3.9 04:22:27 10° WNW 04:25:17 14° W 04:28:07 10° SW
BREEZE M DEB (TANK) 3.2 04:22:55 10° SSW 04:25:22 27° SE 04:27:20 10° E
Cosmos 1867 3.8 04:20:15 10° SSW 04:25:40 74° ESE 04:31:08 10° NE
Cosmos 1486 Rocket 4.5 04:21:04 10° SW 04:26:03 47° WNW 04:31:08 10° N
RESURS DK-1 2.5 04:23:51 10° NNW 04:28:02 83° ENE 04:32:11 10° SSE
Cosmos 2221 Rocket 4.3 04:25:45 10° N 04:30:16 60° E 04:34:43 10° SSE
CZ-4B R/B 4.3 04:25:16 10° NNE 04:30:19 42° E 04:35:26 10° S
Cosmos 1862 Rocket 4.2 04:28:08 10° NNW 04:32:04 35° W 04:35:59 10° SSW
UNKNOWN OBJECT B 3.8 04:29:24 10° N 04:33:00 33° WNW 04:36:33 10° SW
PSLV R/B 4.2 04:29:47 10° NNE 04:33:46 67° E 04:37:38 10° S
Cosmos 1933 Rocket 4.5 04:34:27 10° SW 04:38:29 33° WNW 04:42:32 10° N
CZ-2D R/B 3.5 04:34:49 10° NNW 04:38:52 23° WNW 04:42:55 10° WSW
MOS 1-B 4.4 04:34:14 10° NNE 04:40:02 76° WNW 04:45:46 10° SSW
BREEZE-M DEB (TANK) 3.4 04:37:28 10° W 04:43:28 62° N 04:46:19 10° E
